Location: Владивосток
(43.1151°N, 131.8856°E)
Time: 06:48:55
(UTC+10:00)

POLYITAN 1 - Visible Passes

Search period start: 29 June 2022 00:00
Search period end: 09 July 2022 00:00
Orbit: 586 x 606 km, 98.0° (Epoch: 28 June)

Date Brightness Start Highest point End Pass type
(mag) Time Alt. Az. Time Alt. Az. Time Alt. Az.
29 Jun ? 02:56:54 10° NNE 03:01:09 74° ESE 03:02:29 42° S visible
29 Jun ? 04:34:46 10° NW 04:36:10 11° WNW 04:37:33 10° W visible
30 Jun ? 03:06:47 10° NNE 03:11:03 86° W 03:12:28 41° SSW visible
01 Jul ? 01:43:39 10° ENE 01:44:52 11° E 01:45:47 10° ESE visible
01 Jul ? 03:16:42 10° N 03:20:54 67° WNW 03:22:27 37° SW visible
02 Jul ? 01:52:33 10° ENE 01:54:51 14° E 01:55:45 13° ESE visible
02 Jul ? 03:26:39 10° N 03:30:46 52° WNW 03:32:25 32° SW visible
03 Jul ? 02:01:53 10° NE 02:04:49 18° E 02:05:44 17° ESE visible
03 Jul ? 03:36:37 10° N 03:40:36 40° WNW 03:42:24 26° WSW visible
04 Jul ? 02:11:24 10° NE 02:14:47 23° E 02:15:42 21° ESE visible
04 Jul ? 03:46:39 10° N 03:50:25 32° WNW 03:52:22 22° WSW visible
05 Jul ? 02:21:01 10° NE 02:24:44 29° E 02:25:39 26° ESE visible
05 Jul ? 03:56:44 10° NNW 04:00:14 26° WNW 04:02:19 18° WSW visible
06 Jul ? 02:30:42 10° NNE 02:34:39 36° E 02:35:37 32° SE visible
06 Jul ? 04:06:51 10° NNW 04:10:02 21° WNW 04:12:17 14° WSW visible
07 Jul ? 02:40:27 10° NNE 02:44:34 47° E 02:45:34 39° SE visible
07 Jul ? 04:17:04 10° NNW 04:19:49 17° WNW 04:22:14 11° W visible
08 Jul ? 02:50:14 10° NNE 02:54:27 61° ESE 02:55:31 45° SSE visible
08 Jul ? 04:27:25 10° NNW 04:29:34 14° WNW 04:31:43 10° W visible
